This is the latest recevied weather packets stored in our database for station/object DG0LHZ-10. If no packets are shown the sender has not sent any weather packets the latest 10 day(s).
| Time | Temp. | Humidity | Pressure | Rain* | Wind** | Luminosity | Snow |
|---|---|---|---|---|---|---|---|
| 1788190098 | 29.44° C | 38% | 1014 hPa | - | - | - | - |
| 1788189198 | 29.44° C | 39% | 1014.1 hPa | - | - | - | - |
| 1788188298 | 29.44° C | 39% | 1014.1 hPa | - | - | - | - |
| 1788187398 | 28.89° C | 40% | 1014.2 hPa | - | - | - | - |
| 1788186498 | 28.89° C | 40% | 1014.2 hPa | - | - | - | - |
| 1788185598 | 28.89° C | 41% | 1014.4 hPa | - | - | - | - |
| 1788184698 | 28.89° C | 42% | 1014.4 hPa | - | - | - | - |
| 1788183798 | 28.89° C | 43% | 1014.5 hPa | - | - | - | - |
| 1788182897 | 28.33° C | 44% | 1014.6 hPa | - | - | - | - |
| 1788181997 | 28.33° C | 45% | 1014.6 hPa | - | - | - | - |
| 1788181097 | 27.78° C | 46% | 1014.6 hPa | - | - | - | - |
| 1788180197 | 27.78° C | 48% | 1014.7 hPa | - | - | - | - |
| 1788179297 | 26.67° C | 50% | 1014.6 hPa | - | - | - | - |
| 1788178397 | 26.11° C | 51% | 1014.9 hPa | - | - | - | - |
| 1788177497 | 25.56° C | 52% | 1014.7 hPa | - | - | - | - |
| 1788176597 | 24.44° C | 54% | 1014.8 hPa | - | - | - | - |
| 1788175697 | 23.89° C | 54% | 1015 hPa | - | - | - | - |
| 1788174809 | 23.33° C | 55% | 1015 hPa | - | - | - | - |
| 1788173897 | 22.22° C | 54% | 1014.9 hPa | - | - | - | - |
| 1788172997 | 22.22° C | 54% | 1015 hPa | - | - | - | - |
| 1788172097 | 21.67° C | 54% | 1014.9 hPa | - | - | - | - |
| 1788171197 | 20.56° C | 55% | 1014.8 hPa | - | - | - | - |
| 1788170296 | 20° C | 54% | 1015.1 hPa | - | - | - | - |
| 1788169396 | 19.44° C | 55% | 1015.1 hPa | - | - | - | - |
| 1788168496 | 19.44° C | 55% | 1015.1 hPa | - | - | - | - |
* Rain since midnight (hover to see other rain measurements)
** Current wind speed in m/s (hover to see current wind gust speed)